Theta_e
322 322 321 321 321 320 322 321 326 331 327 323 324 328 324 324 325 324 326 325 325 325 324 325 325 327 330 335 335 335 335 337 339 340 341 338 337 337 337 336 334 333 331 331 331 324 319 318 315 313 311 311 311 313 318 323 326 329 329 329 332 333 333 333 334 334 333 333 331 328 326 327 328 324 318 315 314 313 312 315 315 312 311 312 312 313 312 312 311 312 311 311 312 311 311 311 313
322 321 321 320 321 320 322 321 326 331 324 320 321 323 323 325 326 324 326 326 325 325 324 324 326 328 330 333 333 334 337 337 337 338 338 337 337 337 336 336 334 333 331 332 330 323 320 318 315 313 311 311 311 313 318 320 325 330 329 328 331 333 334 334 334 334 332 331 329 327 325 327 325 320 315 316 316 313 313 314 314 313 311 312 312 312 312 312 312 312 311 311 311 311 311 311 312
322 321 321 321 322 320 321 322 325 326 320 320 320 319 323 326 327 326 326 326 326 324 323 325 325 329 331 334 334 337 338 337 337 337 337 337 337 336 337 336 334 332 331 332 329 323 321 319 316 313 311 311 310 311 314 316 322 327 328 329 332 333 334 334 334 333 330 328 326 324 323 324 322 318 315 314 315 314 313 312 313 314 312 312 312 312 312 312 312 312 311 311 311 311 311 310 311
321 319 321 321 321 322 324 325 329 325 319 321 319 317 324 327 326 325 326 326 325 324 326 327 324 328 334 336 335 336 336 336 337 337 337 337 337 337 337 335 334 332 330 332 330 324 321 319 316 314 311 311 310 311 313 313 315 318 324 330 332 333 333 333 332 331 328 324 322 322 320 320 319 317 314 314 320 320 316 312 313 314 312 311 311 311 312 312 312 312 311 311 311 310 310 310 311
320 320 320 320 321 323 325 327 332 327 319 323 319 319 325 325 325 324 324 325 325 325 326 326 324 326 333 335 334 335 336 335 335 336 337 337 337 337 337 336 334 332 331 333 332 326 321 319 316 313 312 311 311 311 312 315 315 316 325 332 331 331 331 330 330 328 324 320 318 318 317 318 317 316 315 318 323 320 317 314 312 312 311 310 310 310 311 310 310 311 311 310 310 310 310 310 311
320 321 320 319 320 321 324 325 330 327 320 324 321 322 324 321 323 321 322 324 324 325 325 325 325 326 332 335 335 335 335 335 335 336 337 337 337 337 337 335 333 332 331 332 333 328 322 320 316 314 312 311 311 310 311 315 318 320 326 330 329 329 329 327 326 323 319 316 315 314 315 316 316 315 317 321 321 317 316 315 312 311 310 310 311 313 314 312 311 311 310 310 310 310 310 310 311
320 321 321 320 321 321 325 324 328 328 319 321 321 323 323 320 321 321 322 323 322 324 324 325 325 326 331 335 335 336 336 336 336 336 336 336 337 337 336 334 332 331 330 332 333 329 322 320 317 314 312 311 311 310 310 312 315 317 322 327 326 327 326 324 321 318 315 313 312 312 315 316 315 314 318 321 319 317 315 313 312 311 309 309 311 315 316 314 312 311 310 310 310 310 310 310 311
319 320 321 323 327 324 325 325 329 328 318 318 321 322 322 320 320 320 321 321 322 323 322 323 322 327 329 333 335 336 336 336 336 335 335 335 336 336 334 332 331 330 330 332 332 329 323 320 318 314 312 311 311 310 310 310 311 313 317 322 323 323 323 321 317 316 313 311 311 311 314 314 312 315 319 320 319 318 316 313 311 310 309 309 310 312 313 312 311 310 310 310 310 310 310 310 311
319 319 321 323 329 326 326 328 326 323 319 319 320 321 321 321 319 319 319 319 321 321 321 321 320 329 332 333 335 336 337 336 336 335 335 335 336 335 333 332 330 329 330 332 332 330 324 321 319 315 312 311 311 310 310 310 310 311 313 316 318 318 318 316 315 315 312 311 311 310 313 313 313 316 318 319 320 318 315 312 309 309 309 309 309 309 310 309 310 310 310 310 310 310 310 311 311
319 320 320 323 327 324 327 330 324 319 319 319 319 320 321 320 319 319 318 319 321 320 321 320 323 332 333 334 335 336 336 336 336 336 335 335 335 335 334 331 330 330 330 332 332 331 325 321 319 316 313 311 311 311 311 310 310 312 312 312 313 313 314 313 313 313 312 311 311 311 313 314 313 316 316 317 319 317 314 313 310 308 308 309 309 309 310 310 311 311 311 311 311 310 311 312 312
320 318 319 324 325 323 328 327 322 320 319 319 319 319 320 320 319 317 319 321 320 321 320 320 328 334 334 334 334 335 336 335 336 336 336 335 335 335 334 331 330 331 332 333 332 331 326 321 320 317 314 311 311 311 311 311 311 311 311 311 310 311 311 311 311 311 312 311 311 310 312 312 312 313 312 314 316 316 317 315 312 308 308 309 309 310 311 312 313 314 314 313 313 312 312 312 313
321 322 322 325 327 327 328 324 319 320 319 320 320 319 320 319 318 316 318 321 320 321 319 319 327 333 337 336 334 335 336 335 336 336 336 336 336 335 334 331 331 332 333 333 333 332 327 322 321 319 317 314 312 311 311 311 311 311 310 310 310 310 310 310 310 310 312 311 310 310 310 311 311 310 309 312 312 313 316 315 311 309 309 310 310 312 313 315 315 315 315 314 314 313 313 313 314
320 324 325 325 331 329 325 322 320 321 319 320 320 319 321 319 318 317 318 319 319 319 318 320 322 330 337 336 335 335 335 334 336 335 335 337 336 336 334 330 330 332 333 333 333 333 329 323 322 320 319 317 315 313 311 311 311 310 310 311 310 311 310 310 310 309 310 310 309 309 309 309 309 308 308 309 309 309 311 311 309 309 310 311 313 314 315 315 315 315 315 314 314 313 313 313 313
319 322 324 326 332 326 323 322 319 321 318 319 319 318 321 319 318 317 318 319 319 319 319 321 320 329 338 336 335 335 335 334 334 334 335 336 336 336 334 331 331 332 333 334 334 333 330 325 322 321 320 319 318 316 314 312 311 311 311 311 311 311 311 310 310 309 309 309 309 309 308 308 308 308 308 308 308 308 308 308 309 309 311 314 315 316 316 315 315 315 315 314 314 314 313 313 313
319 321 324 327 330 326 327 325 322 323 319 319 319 318 319 317 318 317 318 321 320 319 319 321 320 327 335 335 334 334 335 334 333 334 335 335 335 336 335 334 335 335 334 335 335 334 332 328 324 322 321 320 320 319 317 315 313 312 312 311 311 311 311 311 310 309 309 309 309 308 308 308 308 307 307 307 307 307 307 308 310 312 314 316 316 317 317 317 317 317 317 316 315 314 314 314 313
319 322 324 326 330 328 329 325 323 325 320 319 318 319 319 317 318 318 319 320 319 318 318 321 322 325 328 329 329 331 335 333 333 335 334 335 334 335 335 335 337 336 335 335 335 334 333 331 327 323 322 321 321 321 319 318 316 314 312 312 312 312 312 311 311 310 310 309 309 309 308 307 308 307 307 307 306 307 308 310 312 314 316 317 317 318 318 318 319 319 319 318 318 316 315 315 314
319 322 326 326 330 329 327 324 323 325 320 318 318 319 319 317 317 317 318 318 319 318 319 322 323 327 328 328 323 326 333 332 333 334 334 335 335 335 335 335 337 337 336 336 335 334 334 333 329 325 323 323 322 321 321 320 319 317 314 313 312 312 312 312 312 312 311 310 310 309 308 307 307 307 307 306 307 308 309 311 314 316 317 318 319 319 319 319 319 320 320 319 319 318 316 315 315
319 327 329 326 328 327 326 324 322 323 320 317 317 318 319 318 317 316 316 318 320 319 322 324 323 327 328 328 325 324 330 332 333 334 334 335 335 335 334 334 335 336 336 336 336 334 333 332 331 328 326 325 324 322 322 321 320 319 317 315 314 314 314 314 314 314 313 312 311 310 309 308 307 306 306 306 307 309 310 313 316 317 318 318 319 320 320 320 320 320 320 320 320 320 318 317 316
321 327 328 330 331 322 319 319 318 319 318 317 317 318 318 318 317 316 316 317 320 321 324 326 327 331 332 330 328 327 330 332 331 332 334 334 334 334 334 333 334 335 335 335 335 335 334 332 333 332 329 328 325 323 322 322 322 321 320 318 317 316 316 316 316 316 315 314 313 312 311 310 309 308 307 307 308 310 311 314 317 318 318 318 319 319 319 320 320 320 320 320 320 320 320 319 318
320 322 326 335 328 317 316 317 318 318 318 317 317 317 317 317 316 316 315 315 318 320 323 327 332 335 334 332 331 329 331 331 330 331 332 332 332 332 331 332 333 334 334 335 335 334 334 333 333 333 331 329 326 325 323 323 322 322 321 320 319 318 318 318 317 317 316 316 315 313 313 313 313 312 311 310 310 311 313 315 317 318 318 319 319 319 319 320 320 320 320 320 320 320 320 320 319
319 321 328 329 320 317 317 315 317 318 318 318 317 317 317 316 316 315 315 315 316 317 319 323 328 330 332 333 332 331 331 330 330 330 331 331 331 330 329 330 331 332 334 335 334 334 334 334 333 332 332 330 327 326 324 323 323 323 322 321 321 320 320 319 319 319 319 318 318 316 314 315 316 315 315 314 313 314 315 316 317 317 318 318 319 319 319 319 319 319 319 320 320 320 320 320 319
318 320 322 319 317 319 317 314 317 318 318 318 316 316 317 316 316 315 316 317 316 316 317 317 318 320 325 329 331 332 331 330 330 330 330 330 330 329 329 328 329 331 333 334 334 334 333 332 332 332 332 330 328 327 324 324 323 323 323 322 322 321 321 321 321 321 321 321 321 320 318 318 318 317 316 316 316 316 316 316 317 317 318 318 318 319 319 319 319 319 319 320 320 320 320 320 320
319 319 317 316 317 318 316 315 317 317 318 317 316 316 316 316 316 316 315 317 316 316 318 317 317 316 317 321 326 329 329 329 329 329 329 329 328 328 328 327 327 328 330 331 331 332 332 331 331 331 330 328 328 328 325 324 323 323 323 322 323 322 322 322 322 322 322 322 322 322 321 321 321 320 318 318 318 318 318 318 318 318 318 318 318 319 319 319 319 320 320 320 320 320 320 320 321
319 319 316 316 316 316 316 316 316 317 317 317 317 316 316 316 316 316 316 316 316 317 318 318 318 317 317 319 321 321 323 326 327 328 328 327 326 327 327 327 326 326 327 329 329 330 331 330 331 330 329 329 328 328 327 324 323 323 323 322 322 322 322 323 323 323 323 323 323 323 323 323 323 323 322 320 320 319 319 319 319 319 319 319 320 320 320 320 320 320 321 321 321 321 321 321 321
318 318 316 315 315 316 315 315 316 317 317 316 317 315 315 316 316 316 316 315 315 316 317 319 320 318 318 318 318 318 319 322 325 328 328 328 328 329 330 330 330 329 327 328 328 329 329 329 331 330 329 329 328 327 327 325 324 324 323 322 323 323 323 324 324 324 324 324 324 324 324 324 324 324 324 323 323 321 321 321 321 320 320 321 321 321 321 322 322 322 322 322 322 322 323 323 323
317 317 315 314 314 315 315 315 316 316 316 316 316 315 314 315 316 315 315 315 315 315 317 320 321 321 319 318 317 318 318 320 323 325 327 328 329 331 333 334 333 332 330 329 329 328 329 328 329 329 328 327 328 327 326 325 325 325 324 323 323 324 324 325 325 325 325 325 325 325 325 325 325 325 325 325 325 324 324 324 324 323 323 323 323 323 323 323 323 323 323 323 323 324 324 324 324
317 316 315 314 313 314 314 315 315 316 316 315 317 316 314 315 315 316 315 315 315 316 319 321 322 322 321 319 316 317 317 318 319 321 325 328 329 332 334 335 334 334 332 332 330 329 329 328 327 327 327 326 327 327 325 324 324 324 325 324 324 324 324 325 325 325 325 325 325 325 326 326 326 326 326 326 326 325 325 325 326 325 324 324 324 324 324 324 325 325 325 324 324 325 324 325 325
316 315 315 313 313 314 314 315 315 315 315 315 316 315 314 314 315 316 315 315 315 315 320 323 322 320 321 319 317 316 316 316 318 320 323 325 326 329 333 334 335 335 334 332 331 330 329 328 326 325 325 324 325 325 324 324 323 324 324 323 323 323 324 325 325 325 325 325 325 326 326 326 326 326 326 326 326 326 326 326 326 326 326 326 325 326 326 326 326 326 326 326 326 326 325 325 325
315 316 316 314 314 315 314 314 314 315 316 315 315 315 316 316 315 316 315 315 315 314 317 320 320 318 318 318 318 317 316 317 319 319 319 319 320 324 328 331 333 334 333 332 331 330 329 327 326 324 323 323 323 322 323 323 323 323 323 323 323 322 322 323 324 325 325 325 324 325 325 326 326 326 327 327 326 326 326 325 325 326 326 326 326 326 326 327 327 328 327 327 326 326 325 325 325
316 315 316 316 315 315 315 314 315 315 315 315 314 317 323 320 314 315 315 315 315 314 314 315 316 317 318 318 318 317 318 320 319 316 316 317 319 321 322 325 329 332 333 333 331 329 327 326 325 324 324 323 322 322 322 323 322 321 322 323 323 322 321 321 323 324 325 325 325 324 324 324 326 326 327 327 327 327 326 325 325 325 325 326 326 326 326 327 328 328 328 327 327 326 325 324 324
316 314 316 319 318 316 316 314 315 316 314 314 314 317 325 320 313 314 315 315 314 315 314 313 314 315 317 319 319 319 319 319 316 315 315 316 317 319 320 321 324 328 331 332 330 327 325 324 323 323 323 323 322 321 321 322 321 320 321 322 323 322 321 321 321 322 323 323 323 323 322 321 323 324 326 327 327 326 325 325 325 325 326 326 327 327 327 328 328 328 328 328 327 327 326 325 325
316 316 317 318 317 317 317 314 314 317 314 313 314 317 321 317 312 314 314 314 314 314 315 315 314 314 317 319 320 320 319 318 317 317 316 316 316 317 318 319 320 322 325 327 326 324 324 322 321 321 321 321 321 321 320 321 321 321 320 321 322 321 320 320 319 319 320 320 320 320 320 320 320 321 323 325 325 324 324 325 326 327 327 327 328 329 329 329 329 329 328 328 328 327 327 326 325
316 321 323 318 318 318 317 315 314 315 314 313 314 316 318 315 313 313 313 314 314 315 315 316 314 314 317 319 320 320 320 320 319 318 317 316 316 315 315 317 317 318 320 322 322 322 321 320 319 319 319 319 319 320 320 320 321 321 321 320 321 320 319 318 317 317 317 317 317 317 317 318 318 319 320 322 322 322 322 323 325 327 327 328 328 328 328 328 328 327 326 326 326 326 326 325 324
316 320 324 320 318 317 317 317 314 314 315 314 314 315 318 316 312 313 314 313 314 314 314 316 316 315 316 319 321 321 320 319 317 316 315 315 315 314 315 315 316 316 318 320 320 320 319 319 318 317 318 318 317 318 318 319 320 322 322 321 321 320 318 316 316 316 316 316 316 316 316 316 316 316 318 320 320 320 321 322 323 325 326 326 325 324 324 324 324 323 323 323 324 324 325 324 324
320 319 322 319 316 316 317 318 316 316 316 315 315 314 317 317 313 312 313 313 314 314 314 314 316 316 316 317 319 320 319 316 315 314 314 314 315 314 314 315 315 316 316 318 319 319 319 319 318 318 318 318 317 317 318 319 320 322 323 321 320 320 318 316 315 316 316 316 316 317 317 316 316 315 316 318 319 320 322 323 323 324 325 325 324 323 323 322 323 323 322 323 323 324 324 325 325
323 322 324 323 317 317 318 317 315 315 315 316 316 315 316 316 315 313 312 313 313 313 314 314 315 316 316 316 316 317 316 315 313 314 314 314 314 315 314 314 314 314 315 316 317 318 319 318 318 318 317 317 317 317 318 318 318 319 320 319 318 318 317 317 317 317 317 317 316 316 316 316 316 316 318 319 319 320 322 322 322 323 324 323 322 321 322 322 323 323 323 323 324 324 324 325 326
320 320 323 323 319 317 316 316 314 313 315 317 316 315 315 316 316 313 312 313 312 312 313 313 314 315 315 316 315 315 315 315 314 315 315 315 315 314 315 314 314 314 314 314 316 316 316 316 316 316 316 316 316 316 316 316 316 316 316 316 316 316 316 317 317 317 317 318 317 316 317 317 317 319 321 323 323 320 320 321 320 320 321 321 322 322 322 322 323 323 324 324 324 323 323 323 326
318 318 319 319 320 319 315 315 315 312 315 317 315 315 315 316 316 313 312 312 312 312 313 313 315 314 315 315 315 315 315 315 315 316 316 315 316 315 315 315 314 314 315 314 314 315 315 315 315 315 315 315 315 315 315 315 315 315 315 315 316 316 316 316 316 317 318 318 318 317 317 318 319 321 323 325 324 321 323 326 323 320 319 320 322 323 322 323 322 322 324 325 325 324 324 323 323
317 318 318 318 320 319 314 314 315 313 314 316 316 316 316 317 317 313 310 312 313 313 314 314 315 315 315 315 315 315 315 315 315 315 316 316 316 316 316 315 314 314 315 315 314 314 315 315 314 314 315 315 315 315 315 315 314 315 315 316 316 317 317 317 317 318 318 318 319 318 318 319 321 323 323 324 323 322 326 327 323 322 323 323 322 322 325 326 325 324 323 325 327 327 326 325 323
318 318 317 318 319 318 316 314 314 315 314 314 316 316 317 317 318 316 311 312 314 314 315 315 314 315 315 316 315 316 316 315 316 315 316 316 316 317 316 315 315 315 315 315 315 314 314 314 314 314 315 315 314 314 314 315 315 316 317 317 317 317 318 318 318 318 318 319 321 321 322 323 324 324 323 323 324 324 325 325 323 324 325 324 321 321 327 329 328 326 322 323 327 327 325 325 323
319 319 317 318 318 318 318 316 315 315 313 314 315 315 320 319 316 317 314 312 313 314 314 314 314 315 315 316 315 316 316 316 316 316 316 316 316 316 316 316 316 315 315 315 314 314 314 314 314 315 315 315 314 314 314 315 316 317 317 317 317 317 317 318 318 319 319 319 321 323 324 325 326 326 325 325 325 325 326 327 326 325 325 325 323 323 325 325 324 323 322 323 324 323 323 324 324
318 320 321 318 317 319 319 317 317 315 313 316 313 313 325 327 317 314 314 313 314 313 313 313 315 315 315 316 316 316 317 317 317 317 316 316 316 316 316 315 315 315 314 314 314 314 314 314 315 315 315 315 314 314 314 315 316 316 316 316 316 316 317 317 318 320 321 321 323 323 323 324 326 325 325 326 326 326 326 327 326 326 326 328 328 326 324 323 323 324 325 325 323 323 325 326 326
317 318 320 317 317 322 318 316 321 318 315 316 313 313 320 326 323 317 314 315 315 313 312 313 314 315 315 316 317 317 317 318 317 317 317 316 316 315 315 315 314 314 314 314 314 314 314 314 314 315 316 315 315 315 315 315 316 316 317 317 317 318 318 319 320 322 323 323 323 323 321 322 324 324 324 324 324 324 325 325 325 325 325 326 326 325 324 324 325 326 326 326 324 325 327 327 326
320 318 318 318 320 322 318 318 326 325 318 315 317 318 314 319 327 320 313 314 315 315 315 313 313 314 315 314 315 315 315 316 316 315 315 315 315 315 314 314 314 313 314 313 313 313 313 313 314 315 316 316 315 315 316 316 317 318 318 319 320 320 322 323 322 322 322 321 321 321 320 320 321 320 320 320 320 321 322 322 322 322 322 323 323 323 323 323 324 324 325 324 324 325 325 325 324
321 320 319 320 320 322 320 321 327 324 319 318 319 317 313 323 332 318 311 315 314 316 319 315 313 314 315 315 315 315 315 315 315 315 314 314 314 314 314 314 314 313 313 313 313 313 313 313 313 314 315 316 316 316 317 317 319 320 321 321 321 322 323 323 321 319 319 319 319 319 319 319 319 318 318 318 318 318 318 318 318 318 319 319 320 320 321 321 322 322 322 322 321 322 322 322 322
318 319 321 322 322 322 321 325 329 320 316 323 324 316 312 324 332 316 310 316 315 316 318 313 312 315 315 315 316 315 315 315 314 314 314 314 313 313 313 313 313 313 312 312 312 312 312 312 312 313 314 316 316 316 318 319 320 321 321 322 322 322 321 319 317 318 319 318 318 318 318 318 317 317 316 314 314 314 314 314 314 314 314 314 315 315 316 316 316 317 317 317 318 318 319 319 319
315 320 323 322 324 328 329 334 332 317 319 332 328 318 313 317 327 321 313 317 316 315 317 315 313 315 316 316 315 315 315 314 314 314 314 314 313 312 312 312 312 312 312 311 311 311 311 311 311 312 313 315 316 317 317 318 318 319 320 321 321 320 318 316 316 317 318 318 317 317 317 316 314 313 313 312 312 312 312 312 312 312 312 312 312 312 312 312 312 312 312 313 313 314 314 314 314
320 326 323 319 323 331 333 330 323 317 325 331 321 316 315 316 324 324 316 317 317 315 318 320 315 314 315 315 315 315 315 315 314 314 314 314 313 313 312 312 312 312 312 312 311 310 310 310 310 311 312 313 314 315 315 314 314 315 317 318 317 316 315 315 316 316 316 316 315 315 314 313 312 312 313 313 313 313 313 313 313 313 313 313 312 312 312 312 311 311 311 311 311 311 311 311 311
323 322 319 320 322 323 324 323 322 322 322 319 315 315 316 317 321 320 316 316 314 313 315 317 314 314 315 315 315 315 315 315 314 314 314 314 313 313 313 313 312 312 312 312 312 311 310 310 310 310 310 311 312 312 312 312 312 312 313 313 313 314 315 315 315 314 314 313 313 313 313 313 313 313 313 313 313 313 313 313 313 313 313 312 312 312 312 312 311 311 311 311 311 311 311 310 310
317 315 316 324 323 317 316 319 320 322 319 314 313 315 317 318 317 316 316 315 313 312 312 314 315 315 316 315 315 315 315 315 314 314 314 314 314 313 313 313 313 312 313 312 312 311 311 310 310 310 310 310 311 311 311 311 311 312 313 313 314 314 314 314 313 313 313 313 313 313 313 313 313 313 313 313 313 313 312 312 312 312 312 312 311 311 311 310 310 310 310 310 309 309 309 309 309
317 318 318 323 326 322 321 321 321 321 320 315 311 314 321 319 314 314 312 311 312 313 313 314 315 315 315 315 314 315 315 315 315 314 314 314 313 314 313 313 313 313 313 312 312 312 311 311 310 310 310 311 311 311 311 312 312 313 314 314 314 314 313 313 313 313 313 313 313 313 313 313 313 313 313 312 312 312 311 311 310 310 309 309 308 307 307 307 306 306 306 305 305 305 304 304 304
319 319 319 320 324 329 326 323 327 325 319 316 313 318 324 317 312 312 309 310 313 313 313 314 314 314 314 314 314 315 315 315 315 314 314 314 313 313 313 313 313 313 313 312 312 312 312 312 311 311 312 313 313 313 313 314 314 314 314 313 313 313 313 313 313 313 313 313 313 313 313 313 313 312 312 311 310 309 308 308 307 306 305 305 304 303 303 303 302 302 301 301 301 300 300 300 299
320 318 321 322 320 327 323 314 318 320 317 319 315 318 321 314 312 312 309 312 313 311 313 313 313 315 314 314 314 314 315 315 315 314 314 314 313 313 313 313 313 313 313 314 313 313 313 313 313 313 314 314 314 314 314 313 314 313 313 313 313 313 313 313 313 313 313 313 313 313 313 312 311 310 309 308 307 306 305 304 304 303 303 303 302 301 301 301 300 300 299 299 299 298 298 298 298
322 319 320 319 315 321 324 315 315 316 319 323 315 314 319 315 316 315 310 313 314 312 312 311 312 314 313 314 314 314 315 314 314 314 314 314 314 314 314 314 314 314 314 314 314 314 314 314 314 314 314 314 314 314 313 313 313 313 313 313 313 313 313 313 313 313 313 313 312 312 311 310 308 307 306 305 304 304 303 303 303 303 302 302 301 300 300 300 299 299 298 298 298 298 297 297 297
318 318 316 318 318 320 321 317 317 314 315 321 316 314 318 317 319 318 313 314 314 312 313 312 311 312 312 313 313 313 314 313 314 314 314 314 314 314 314 314 314 314 314 314 314 314 314 313 313 313 313 313 313 313 313 313 313 313 313 313 313 313 313 313 313 313 312 312 310 309 308 307 306 305 304 303 302 302 302 302 302 301 301 301 300 300 299 299 298 298 298 297 297 297 297 297 297
313 314 312 317 322 323 321 317 318 319 317 320 317 313 319 322 319 320 318 318 314 312 314 313 310 311 312 313 313 313 313 313 314 314 313 314 314 314 314 313 314 314 313 314 313 313 313 313 313 313 313 313 313 313 313 313 313 313 313 313 313 313 313 313 312 311 310 309 308 307 306 305 304 303 303 302 301 301 301 301 301 301 300 300 299 299 298 298 298 297 297 297 297 297 297 297 297
314 315 313 314 316 318 321 317 319 324 322 323 318 315 328 329 317 316 319 318 315 311 312 312 309 311 313 313 313 313 313 313 313 313 313 313 313 313 313 313 313 313 313 313 313 313 313 313 313 313 313 313 313 313 313 313 313 313 313 313 313 313 312 311 310 309 308 307 306 305 304 304 303 302 302 301 301 301 301 300 300 299 299 299 298 298 298 297 297 297 297 297 297 297 296 296 296
314 314 314 315 315 316 318 315 317 320 320 327 323 317 331 327 311 313 317 313 311 308 309 310 309 311 313 313 313 313 313 314 313 313 313 313 313 313 313 313 313 313 313 313 313 313 313 313 313 313 313 313 313 313 313 313 313 312 313 312 312 311 310 309 308 307 306 306 305 304 303 303 302 301 301 301 301 300 299 299 299 298 298 298 298 297 297 297 297 297 297 296 296 296 296 296 296
Wind_Speed
4 4 3 2 4 6 5 2 1 2 2 0 3 1 1 1 3 4 4 6 5 6 13 14 16 14 9 13 15 15 13 4 2 3 5 11 19 20 18 19 19 17 16 14 12 11 11 11 11 10 10 10 10 12 14 14 14 13 13 13 14 12 11 10 9 8 6 6 6 6 5 6 6 5 6 8 10 11 12 12 12 13 14 14 14 14 15 15 15 15 15 15 14 15 16 15 15
4 3 2 1 3 5 5 0 1 3 3 1 3 3 3 2 5 6 5 5 5 7 14 16 19 18 18 18 14 12 14 10 7 12 16 20 23 18 16 19 19 18 16 15 13 12 11 11 11 11 11 10 10 12 13 14 13 13 13 14 14 12 11 10 8 7 6 6 5 5 5 6 6 6 8 10 12 13 13 13 13 13 14 14 13 13 13 14 14 14 15 14 14 15 15 15 15
4 1 0 2 3 4 6 2 2 1 1 2 4 2 3 6 5 6 8 10 13 12 12 12 16 16 16 14 12 8 6 10 17 22 22 21 21 19 17 19 19 18 16 15 13 12 12 11 11 11 11 10 10 11 13 14 14 14 14 13 14 13 11 8 7 7 6 5 5 5 6 7 8 8 10 12 12 13 13 13 12 12 13 13 13 13 13 13 13 14 15 14 15 15 15 15 15
4 1 0 2 4 2 2 2 2 2 0 3 2 3 3 9 7 7 12 15 15 12 9 9 9 12 17 14 10 11 8 10 17 22 22 18 18 21 20 20 20 19 17 14 12 12 11 11 11 12 12 12 11 11 13 15 14 13 13 13 13 13 10 7 6 5 4 4 5 5 6 8 8 9 10 12 12 12 12 12 11 12 13 14 14 14 13 13 13 14 14 14 14 14 14 14 14
3 1 0 2 3 1 1 1 0 3 2 4 3 2 4 9 8 7 12 14 12 10 9 8 5 10 17 12 8 8 9 13 14 17 20 18 18 22 21 20 20 19 17 13 11 11 11 11 11 11 11 12 12 12 14 15 15 14 15 14 13 13 10 7 5 4 3 4 5 6 7 8 8 9 10 11 12 12 13 13 12 12 14 14 14 14 14 13 13 14 13 13 13 13 14 14 14
2 1 0 2 3 2 1 0 1 1 5 4 5 4 5 8 11 12 14 13 11 10 11 10 8 11 13 11 12 10 9 11 12 15 19 20 20 22 22 21 20 19 16 13 11 9 10 10 10 11 11 11 12 13 14 15 15 16 17 15 14 12 9 7 5 4 5 6 7 8 9 9 9 10 11 11 12 12 13 13 14 14 14 13 13 13 13 13 13 13 12 12 12 12 13 13 14
3 1 1 2 2 2 1 2 3 2 4 2 8 6 6 10 16 16 12 10 8 9 11 11 12 12 9 9 12 8 8 9 13 17 18 20 21 20 21 20 19 17 16 14 11 10 10 10 10 10 10 11 12 13 13 13 14 15 16 15 13 11 9 7 5 6 8 9 9 9 10 10 11 11 11 12 12 12 13 13 13 14 13 12 12 12 12 12 12 12 11 11 11 11 12 12 12
2 1 2 1 1 2 2 2 3 3 2 3 9 10 12 16 19 14 7 7 5 6 9 10 13 11 4 10 9 7 11 10 13 18 17 20 20 19 19 20 19 17 16 15 12 11 10 10 9 10 11 11 12 12 12 12 13 14 15 14 13 10 8 6 7 8 9 10 10 10 10 10 11 11 11 12 11 11 12 13 13 12 12 11 11 11 11 11 12 11 11 10 10 10 11 11 11
1 1 2 1 1 2 1 0 2 2 1 3 8 14 19 19 17 13 7 8 8 8 9 8 11 9 7 14 13 9 14 12 14 18 18 20 19 16 17 19 19 17 16 16 13 11 11 10 9 10 11 11 12 12 12 12 11 11 12 12 11 10 8 6 8 10 10 10 11 10 10 10 11 11 11 11 11 10 11 12 12 11 11 11 10 11 11 11 11 11 10 9 9 9 9 10 10
1 1 1 1 1 2 4 2 2 2 2 4 6 14 20 18 17 16 12 9 12 11 8 10 11 12 13 14 12 11 16 17 18 18 19 22 20 16 15 17 17 17 18 17 13 11 10 10 9 10 11 12 12 12 12 12 11 11 12 12 11 10 9 7 8 10 10 10 10 10 10 10 10 10 10 10 10 10 10 10 11 11 11 11 11 11 11 11 10 9 9 8 8 8 9 9 9
1 2 1 1 1 2 4 2 3 2 2 3 4 9 16 19 17 15 15 12 12 13 9 11 13 18 16 10 11 12 15 19 20 20 20 21 20 16 14 16 17 16 17 16 13 11 11 10 9 10 11 12 11 11 11 12 12 12 13 13 12 11 10 9 9 9 9 10 10 10 9 10 10 10 10 10 9 9 9 9 10 10 11 11 10 10 10 10 9 9 9 8 8 8 8 9 9
1 1 2 2 1 3 3 3 5 2 3 3 1 5 10 16 16 12 14 12 12 12 9 9 12 17 12 6 13 13 13 19 21 20 19 20 19 16 14 16 18 16 14 14 12 11 11 10 10 10 12 12 11 11 10 11 12 12 12 12 12 11 10 9 9 9 9 9 9 10 10 9 10 10 10 10 9 8 8 8 9 10 11 10 10 9 10 10 10 10 9 9 9 8 8 8 8
3 1 4 1 3 3 2 4 5 3 3 1 4 6 8 10 12 15 16 13 12 11 7 9 13 13 8 6 15 15 14 20 24 21 20 20 17 15 14 16 17 15 13 12 12 11 11 11 10 10 11 12 11 11 10 10 11 11 11 12 11 11 10 10 9 9 9 9 9 10 10 9 10 11 10 9 9 8 8 9 10 11 10 10 10 10 10 10 10 10 9 9 9 9 8 8 7
4 1 3 2 2 2 2 3 3 4 2 3 7 9 8 6 8 18 18 10 9 12 9 9 12 9 8 9 12 19 17 20 25 22 20 18 16 13 13 15 15 14 13 11 11 11 11 11 10 10 11 11 10 10 10 10 9 10 10 11 11 11 11 10 10 10 9 9 9 10 10 9 10 10 10 9 9 8 9 9 10 10 10 10 10 10 10 10 11 10 10 10 9 9 8 8 7
6 3 2 1 3 3 2 4 4 5 3 4 10 11 10 10 9 17 17 9 7 13 11 8 9 5 9 10 11 25 22 21 27 23 20 17 15 13 12 15 14 13 13 12 12 11 11 11 11 10 10 10 9 9 10 9 9 8 9 10 10 10 11 10 10 10 10 9 9 10 10 9 9 9 9 8 8 8 9 10 10 10 10 10 10 10 10 10 11 10 10 10 9 9 8 8 7
6 3 3 0 2 3 4 4 5 5 3 5 11 12 10 9 11 13 11 13 12 10 8 7 8 4 10 12 14 27 25 24 28 24 22 18 16 14 12 14 13 13 13 13 12 11 10 9 10 9 9 9 8 8 9 9 9 8 8 9 9 10 10 10 10 10 10 9 9 10 9 9 8 8 9 8 8 8 9 9 9 9 9 9 10 10 10 10 10 10 9 9 9 8 8 8 8
4 1 2 1 3 3 4 4 5 5 4 6 11 12 9 6 11 14 10 15 15 10 9 8 7 7 9 10 14 25 25 27 30 27 24 20 19 17 14 15 15 14 13 13 11 11 10 9 9 9 9 8 7 8 8 8 8 8 8 8 9 9 10 10 10 10 9 9 9 9 9 9 9 8 8 8 8 8 8 8 8 8 9 9 9 9 8 9 8 9 8 9 9 8 8 7 7
3 2 2 3 3 3 4 5 7 7 6 8 12 13 11 6 9 14 12 14 16 13 12 10 8 9 10 12 17 22 25 29 32 29 27 24 22 21 18 17 17 16 15 14 11 11 11 9 9 9 9 8 8 7 7 8 8 8 7 7 8 8 9 9 9 9 9 9 9 9 10 10 9 8 7 7 7 7 7 8 8 8 8 7 8 7 7 7 7 7 7 8 8 8 7 6 6
5 3 3 4 4 2 2 5 11 10 10 13 14 13 13 11 12 14 8 11 16 12 11 12 13 14 16 20 21 22 24 29 32 30 30 27 25 24 22 20 20 18 17 16 14 12 11 11 10 10 10 10 9 8 8 8 7 7 7 7 7 7 8 8 8 8 8 8 8 9 10 11 10 8 7 7 6 6 6 6 6 6 6 6 6 6 5 5 5 6 6 6 7 7 6 5 5
7 4 2 5 5 1 4 5 13 17 20 18 14 13 13 14 15 13 10 12 12 10 11 12 17 21 22 25 24 23 24 27 30 30 30 29 26 25 24 23 23 21 20 18 16 14 12 12 11 10 10 10 9 8 9 8 8 8 7 7 7 7 7 7 7 7 7 8 8 8 9 11 10 7 7 6 5 5 5 5 5 5 5 4 4 4 3 4 4 4 5 6 6 6 6 5 4
5 5 3 5 5 1 3 4 13 22 25 20 14 12 12 15 14 12 15 11 4 11 16 12 16 23 25 26 25 23 24 26 29 29 29 28 25 24 23 23 23 23 22 19 17 16 14 14 13 11 10 9 8 8 9 9 9 9 8 8 7 7 8 7 7 6 6 7 7 6 7 10 8 6 6 5 5 4 4 4 4 3 3 3 2 2 2 3 4 5 5 6 6 7 7 7 7
3 5 4 3 4 4 1 5 15 23 23 19 16 13 12 14 13 13 15 8 4 13 18 13 14 20 21 23 24 23 25 26 28 29 29 27 24 23 21 21 22 23 23 21 20 18 16 16 14 14 12 11 10 9 10 10 10 10 9 8 8 8 8 8 8 6 5 6 7 5 6 8 6 5 5 5 4 2 3 3 3 2 1 1 0 1 2 3 4 5 6 7 7 7 8 9 10
3 4 3 0 4 7 5 6 14 21 21 18 14 13 14 13 10 10 8 7 7 11 15 14 13 16 17 19 21 23 25 26 27 28 27 26 24 22 21 20 20 22 23 23 22 19 18 16 16 16 14 13 12 11 11 11 11 10 10 10 9 9 8 8 7 6 5 4 5 4 4 6 5 3 3 4 4 2 2 2 1 1 1 1 1 2 3 4 5 6 7 8 8 9 9 9 10
7 4 2 2 5 9 8 8 14 21 20 16 15 14 14 11 7 7 7 8 9 9 11 14 15 17 17 16 17 18 21 24 26 25 25 24 21 19 19 18 18 19 20 22 22 21 19 17 17 17 16 15 13 13 13 11 11 9 9 9 9 9 8 7 6 5 5 4 3 3 2 3 4 3 2 2 3 3 2 2 2 2 3 4 4 4 5 6 7 8 8 9 10 11 11 11 11
9 4 4 6 6 7 9 9 14 19 18 16 15 12 10 10 8 8 11 11 9 8 9 14 19 19 17 16 16 15 18 22 23 24 24 22 20 17 17 16 16 18 19 19 20 21 20 19 19 18 17 17 15 14 14 12 11 9 8 7 7 7 7 6 6 6 6 5 4 4 3 3 3 3 3 3 3 3 3 3 4 4 5 5 6 7 7 8 9 10 11 11 12 13 13 13 13
10 9 9 8 7 8 10 10 13 15 15 16 13 7 6 9 7 6 11 12 11 10 11 15 20 20 18 15 15 16 16 20 22 23 22 21 20 19 18 17 17 18 19 18 18 19 19 19 19 19 18 17 16 15 14 13 11 10 9 8 7 7 7 7 7 7 7 7 6 6 6 6 5 5 5 5 5 5 5 6 6 7 7 7 7 9 9 10 11 12 13 13 14 14 15 15 15
12 12 10 9 10 9 10 9 11 12 12 12 10 5 5 7 5 3 10 16 15 14 14 17 19 19 18 16 16 16 16 17 18 20 22 22 22 22 22 20 19 18 18 19 19 19 19 19 18 19 18 17 17 16 15 14 12 12 11 10 9 8 8 8 9 8 8 8 8 8 8 8 8 8 7 7 7 7 8 7 8 9 9 9 9 10 11 12 13 14 14 15 16 16 17 17 18
15 17 9 5 7 6 8 8 10 10 7 8 9 5 2 4 3 5 15 20 17 17 18 18 19 17 17 16 16 17 17 16 16 20 23 23 23 23 24 23 22 20 19 20 19 19 19 19 18 18 18 18 17 17 16 15 13 13 13 12 11 10 10 10 10 10 9 9 9 9 10 10 10 10 10 10 10 10 10 10 11 11 12 12 12 12 13 13 14 16 16 16 17 18 18 19 19
21 18 7 1 3 4 6 7 7 7 5 8 10 4 3 2 6 9 17 22 19 18 20 20 19 17 16 16 16 17 17 17 18 20 21 21 22 22 24 24 24 22 20 19 18 19 19 20 19 18 18 18 17 16 15 15 14 13 13 12 12 11 11 11 11 11 11 10 10 10 10 11 11 12 12 12 12 12 12 13 13 13 13 14 15 15 15 15 15 17 18 18 19 19 20 20 21
16 9 6 3 2 1 6 6 6 5 6 9 8 1 5 7 10 11 16 22 21 18 20 21 20 19 18 17 17 17 17 18 19 19 17 18 20 21 22 23 24 24 21 21 20 19 18 19 19 19 19 18 17 16 15 15 14 13 12 12 12 12 11 11 11 11 11 12 12 12 12 11 12 12 13 14 14 15 15 15 16 16 15 16 17 17 17 16 17 18 19 20 20 21 22 21 21
8 3 4 4 3 3 4 5 7 5 4 8 6 2 5 7 8 12 17 21 21 19 19 20 21 21 20 20 19 18 18 19 17 16 16 16 18 19 20 21 23 24 24 23 22 20 18 18 18 18 18 19 19 17 16 15 14 13 12 12 13 13 12 11 11 11 12 13 13 14 14 13 13 13 14 15 16 17 17 17 17 18 18 18 19 20 19 18 18 19 19 21 22 22 22 22 22
4 4 2 1 4 3 4 3 8 5 3 6 5 2 6 6 6 13 17 19 19 20 18 17 20 21 22 21 22 21 20 19 17 16 16 16 17 17 18 19 20 22 25 25 23 20 18 17 16 16 16 17 19 18 17 16 16 15 14 13 13 14 13 13 12 12 13 14 15 15 15 15 15 14 15 17 18 19 19 19 19 19 20 20 21 21 21 20 19 20 21 22 23 23 24 23 23
1 4 4 4 5 3 1 3 5 5 3 4 3 2 3 4 8 13 15 18 18 18 18 17 18 20 23 23 23 23 22 22 21 19 18 18 17 17 17 18 18 19 21 23 23 21 19 17 16 15 14 14 16 18 18 17 16 16 15 14 14 15 14 14 14 14 14 15 15 16 16 16 16 16 16 18 19 20 20 20 20 20 21 22 22 23 23 22 21 22 23 24 25 25 25 24 23
2 2 3 4 5 5 3 2 4 5 4 4 3 3 4 6 7 15 16 17 17 17 18 19 19 19 22 24 24 24 24 23 23 21 19 18 18 18 17 17 17 17 19 21 22 21 19 17 16 14 14 13 13 15 16 16 17 17 17 16 16 16 16 15 15 15 15 16 16 16 16 15 16 17 17 18 20 21 21 21 21 21 21 22 23 24 24 24 23 23 23 22 23 24 23 21 21
4 4 3 2 3 5 6 2 5 7 4 5 5 4 7 7 5 13 16 17 19 20 20 20 22 21 20 23 25 25 25 24 23 20 18 18 18 18 18 17 17 17 17 19 21 21 20 18 17 15 15 14 13 12 13 15 16 18 18 18 17 17 17 16 16 16 16 16 16 16 16 16 16 17 17 18 20 20 20 21 22 21 20 21 23 24 25 24 23 22 21 19 19 20 21 21 20
7 6 5 5 4 3 4 3 3 7 5 4 7 6 7 6 7 10 14 17 19 22 20 19 22 22 21 21 22 22 23 23 20 19 18 18 18 18 18 18 17 17 17 18 19 21 21 20 18 17 16 15 14 14 14 15 16 17 18 18 18 18 17 17 17 17 16 17 16 16 16 16 17 17 17 17 17 17 18 20 21 20 19 19 20 22 22 22 21 20 19 19 19 20 21 22 23
8 6 4 6 6 2 2 2 3 4 5 5 7 6 7 8 7 10 16 17 16 19 18 18 21 22 24 22 21 20 19 19 17 17 18 18 18 18 18 18 18 18 18 18 19 20 20 20 19 18 17 16 16 16 16 16 16 15 16 16 15 16 17 18 18 18 18 17 17 16 16 16 16 16 17 17 17 18 18 19 20 19 19 18 17 18 19 18 17 17 17 19 20 22 23 24 24
5 6 5 4 5 3 2 1 3 1 3 5 4 4 8 8 7 11 15 12 13 20 20 20 21 21 23 24 22 20 17 17 17 17 18 18 19 19 19 20 20 20 20 20 20 20 20 20 20 19 18 18 18 17 17 17 16 15 15 14 13 14 15 16 17 17 17 17 17 16 15 15 14 15 16 16 18 17 15 18 19 17 17 16 15 15 15 16 16 15 17 20 21 22 23 23 22
5 5 6 4 4 3 1 2 2 2 2 3 1 5 9 8 7 9 13 15 18 25 25 22 23 21 22 23 22 22 21 20 19 19 19 19 19 20 20 21 20 20 20 20 20 20 21 21 20 20 20 20 19 19 19 18 17 16 15 14 13 13 13 13 14 14 14 15 14 13 13 13 13 15 15 15 16 15 14 19 19 16 16 17 17 15 15 17 18 17 18 22 24 23 24 24 24
4 5 6 5 5 5 1 2 2 2 2 1 2 2 6 6 5 7 14 21 21 25 26 24 24 24 23 23 22 23 24 23 22 21 21 21 21 20 20 20 20 21 21 22 22 22 22 22 22 21 21 21 20 20 20 18 17 16 15 14 13 13 13 13 13 13 13 13 12 11 11 11 12 13 14 14 15 14 14 16 16 15 16 17 18 16 18 22 21 20 20 22 24 25 26 27 25
3 6 7 5 6 5 3 3 2 3 2 1 4 3 6 5 6 8 10 15 17 20 24 22 21 22 22 22 22 23 24 24 24 22 22 23 22 21 20 20 21 21 22 23 24 24 24 23 23 23 22 22 22 21 20 19 19 18 17 16 15 16 16 15 14 14 13 12 11 10 10 11 12 13 13 13 13 13 13 14 15 15 15 16 17 16 18 21 20 20 20 19 21 23 24 25 24
3 5 7 9 10 6 6 7 6 4 3 2 3 2 5 4 6 10 6 6 9 12 17 20 20 20 20 21 22 22 23 24 23 23 23 23 23 23 22 23 23 23 23 23 24 24 24 24 24 24 24 23 23 22 21 20 20 19 18 18 17 17 16 15 14 14 14 13 12 12 12 12 13 13 12 12 14 14 14 15 16 14 14 16 17 17 17 18 18 19 19 19 20 22 23 25 25
2 4 5 9 10 9 11 9 6 3 3 3 4 5 5 5 4 9 6 6 7 6 9 16 19 19 20 21 21 22 23 23 24 24 24 24 24 25 25 25 25 24 24 24 24 25 25 25 25 25 25 25 24 23 22 22 21 20 19 18 18 16 16 15 15 15 15 16 16 16 15 13 12 11 11 12 13 15 15 15 16 15 14 15 16 17 17 17 18 18 19 20 21 22 23 25 23
3 4 6 11 11 10 11 9 4 3 4 2 4 4 2 4 6 6 4 7 6 5 7 10 15 17 17 18 19 20 22 22 23 24 24 24 25 25 25 26 26 26 26 26 26 26 26 26 26 26 26 25 25 24 23 23 22 21 20 19 18 18 17 17 17 18 19 19 18 17 16 14 12 11 11 11 12 13 14 15 17 18 17 16 17 18 19 18 19 18 18 20 20 19 20 22 23
4 4 7 10 9 9 8 7 4 2 4 1 5 2 2 5 6 4 3 6 6 8 9 10 14 17 16 16 17 18 19 20 21 22 23 25 26 25 25 25 25 26 26 27 27 27 27 27 26 26 26 26 25 24 24 23 22 21 20 20 20 20 20 21 20 20 20 19 16 14 13 12 11 10 10 10 10 12 13 14 15 16 17 17 19 20 20 21 21 21 22 23 23 22 22 23 26
4 5 7 6 6 7 6 5 5 3 3 4 7 2 2 5 5 2 2 3 7 9 8 9 13 17 16 16 16 16 17 17 18 19 20 23 24 25 25 24 24 24 24 25 26 27 27 27 26 25 25 25 25 25 24 23 21 21 21 22 22 22 23 22 20 18 17 14 10 8 9 9 8 8 8 7 6 7 7 8 9 10 12 13 14 15 16 18 18 19 21 21 22 22 23 25 26
8 7 8 7 6 5 4 3 5 4 1 6 6 1 3 2 5 3 4 4 7 7 5 6 11 16 17 16 16 16 15 16 16 16 17 19 20 21 22 22 21 20 20 21 23 25 26 27 26 25 25 25 25 24 23 22 22 22 23 24 24 23 22 20 17 16 13 10 7 6 6 5 4 4 3 2 2 3 3 4 5 5 6 7 7 9 10 11 12 13 14 15 16 17 19 21 22
8 6 6 5 4 4 4 4 3 3 4 6 4 1 3 3 6 5 5 6 6 8 7 8 11 16 18 16 15 14 14 14 15 15 15 16 17 18 19 19 18 17 17 18 20 22 24 25 26 25 25 25 24 24 22 22 22 22 23 22 22 21 19 16 14 12 9 7 6 5 4 4 3 2 0 1 2 3 3 4 5 5 6 6 7 7 8 9 9 10 11 11 12 13 14 16 17
6 6 7 6 2 2 1 2 1 3 5 3 2 1 2 5 7 7 7 7 6 8 12 14 17 20 19 16 14 13 12 12 14 15 14 15 16 16 16 16 15 15 14 15 16 18 20 22 24 24 24 24 23 23 22 22 21 20 19 18 18 16 13 10 10 9 9 8 7 6 5 3 2 1 2 2 3 4 4 5 6 6 7 8 8 9 9 10 10 10 11 11 11 11 12 13 14
5 7 6 5 4 3 2 3 1 3 4 3 2 1 2 4 6 7 9 7 6 8 13 18 23 24 20 17 15 13 12 11 12 13 14 15 15 14 14 14 14 14 14 14 14 15 17 18 19 19 19 20 20 20 19 19 17 16 14 13 13 13 11 12 11 10 9 7 6 4 3 3 2 2 2 3 3 4 5 6 6 7 8 9 10 10 11 11 11 11 12 12 12 12 12 13 13
4 5 6 6 5 5 4 4 3 3 2 2 2 1 4 4 3 6 6 3 1 4 11 17 20 21 19 17 15 14 14 13 13 14 14 15 15 14 14 14 14 14 14 15 15 16 16 16 16 16 15 15 15 15 15 15 15 15 15 15 15 14 13 12 10 9 7 6 5 4 4 3 3 2 2 2 3 4 5 6 7 7 8 8 9 9 10 11 11 12 12 13 13 13 13 13 14
3 3 6 4 5 5 4 4 5 5 1 1 2 3 4 4 4 5 2 2 4 7 11 15 17 18 19 19 18 17 16 15 15 15 15 15 14 14 14 14 15 15 15 15 16 16 17 17 17 16 16 16 16 16 17 17 18 18 18 17 16 14 12 10 9 8 7 6 5 5 4 3 2 1 1 2 3 4 4 5 6 6 7 8 8 9 10 10 11 12 12 12 13 13 14 15 15
1 3 4 5 5 7 5 2 1 4 2 2 2 3 4 3 4 4 2 1 1 4 8 14 17 19 20 20 19 19 18 17 17 17 16 16 15 15 15 16 17 17 17 17 17 18 18 18 18 18 19 19 20 21 21 21 20 19 18 16 14 13 11 10 9 8 7 7 6 5 4 3 2 1 1 2 2 3 4 4 5 6 7 8 9 10 10 11 12 12 13 13 14 14 15 16 17
4 4 6 4 3 4 5 2 2 3 2 3 2 4 4 1 2 4 3 4 6 4 5 9 14 18 20 20 20 19 19 18 18 17 17 17 17 17 18 18 18 18 18 18 19 20 19 19 20 20 21 22 22 22 22 20 19 17 16 14 13 12 11 10 9 9 8 7 6 5 4 3 2 2 1 1 2 3 4 5 6 8 9 10 11 12 12 13 13 14 14 15 15 16 16 17 18
4 4 3 4 2 1 2 3 2 2 3 4 3 3 3 4 4 4 5 8 9 8 7 7 11 17 20 20 20 20 19 20 19 19 19 19 19 19 19 20 19 19 19 19 20 21 22 22 22 23 23 23 22 21 20 18 17 15 14 13 13 12 11 10 10 9 8 7 6 5 4 3 2 2 1 2 3 4 5 7 8 9 10 11 12 12 13 14 14 14 15 15 16 16 17 17 18
2 2 2 3 3 4 3 3 4 3 4 4 2 1 3 6 6 7 9 12 11 10 9 9 13 20 23 23 23 22 21 21 21 21 21 21 21 21 21 21 20 20 20 20 22 23 23 24 23 23 22 21 20 19 17 17 16 14 13 13 13 12 11 10 9 9 8 7 6 5 4 3 2 2 2 3 4 5 6 7 8 9 10 11 12 13 13 14 14 15 16 16 17 17 18 19 19
2 2 3 1 1 3 2 2 3 4 4 4 2 2 5 6 5 8 11 11 11 12 10 10 16 22 24 25 25 24 23 22 22 23 23 23 23 23 22 21 21 21 22 23 24 24 24 23 22 21 20 19 18 18 16 16 15 14 13 13 13 12 12 11 10 9 8 7 6 5 4 3 2 1 2 3 4 6 7 8 9 10 11 12 13 13 14 15 15 15 17 17 18 19 20 21 22
3 4 6 5 3 4 3 3 2 2 3 4 4 3 7 6 4 5 8 7 8 12 13 12 18 24 25 25 25 24 23 23 23 24 24 24 24 23 23 23 23 24 24 25 24 23 23 22 21 20 19 18 17 17 16 16 15 15 14 13 13 13 13 12 11 10 9 7 6 5 4 3 1 0 2 3 5 7 8 9 10 11 12 13 14 15 15 16 16 17 18 19 21 22 23 25 26
Wind_Direction
349 314 297 330 341 337 330 333 351 309 70 265 257 125 247 169 107 92 70 66 68 57 75 77 56 63 97 105 111 86 52 11 214 162 146 139 144 158 165 166 162 157 151 136 125 107 95 90 95 104 110 114 113 112 109 104 109 113 113 118 114 111 109 104 103 98 88 72 53 52 76 85 73 63 68 79 81 79 80 79 80 82 81 80 79 79 81 83 84 84 85 87 87 86 87 89 92
349 303 271 281 328 334 315 126 101 344 49 316 281 155 172 43 62 90 96 86 102 100 88 77 62 80 107 100 93 74 43 43 115 124 123 137 144 155 164 164 162 158 150 134 125 110 98 93 95 102 110 117 119 120 114 109 116 117 113 117 115 111 111 107 105 99 82 69 56 59 79 91 84 72 74 79 78 77 79 77 77 80 84 83 80 81 83 86 89 89 89 89 88 88 88 89 91
352 330 189 278 326 321 299 340 111 3 63 218 266 262 112 83 88 110 107 104 104 102 96 79 66 79 91 74 59 75 73 81 112 121 128 148 152 155 164 164 163 160 149 134 126 113 102 98 97 102 111 118 121 126 124 118 116 115 110 115 120 116 114 113 110 100 78 58 60 73 83 89 78 71 75 77 78 80 82 81 81 81 82 83 79 76 78 80 83 87 88 89 89 87 88 89 91
359 318 160 331 354 322 287 40 163 152 84 203 222 295 105 113 125 114 108 109 107 102 97 84 64 72 82 85 82 88 107 117 124 129 138 157 157 153 159 162 165 162 150 137 127 114 104 98 97 101 109 116 121 122 120 114 111 116 118 123 127 122 118 119 115 101 71 48 68 83 83 85 81 78 78 80 85 85 84 83 81 78 75 75 75 74 75 77 79 85 88 89 89 88 89 91 94
356 300 143 4 354 309 108 67 149 100 204 192 155 235 141 125 133 115 111 113 108 103 100 96 83 86 86 89 97 97 118 131 134 136 143 156 155 151 158 163 165 162 153 142 129 115 101 94 94 99 107 115 118 117 114 114 119 130 135 133 130 126 126 125 120 104 71 63 86 97 94 92 91 87 82 84 86 81 80 79 78 80 78 76 75 78 80 82 84 88 92 91 91 93 95 97 101
305 234 353 325 292 290 60 18 319 343 244 176 123 178 156 131 130 117 109 108 101 99 98 99 113 100 81 78 91 108 135 143 149 151 150 151 151 153 159 163 162 159 152 144 134 116 101 93 91 95 104 113 116 117 117 120 125 134 141 139 133 130 128 130 123 99 86 87 94 99 102 101 98 94 87 85 83 81 81 79 80 84 86 83 81 83 85 88 89 92 96 97 98 100 101 103 105
286 228 40 310 273 307 104 180 245 242 279 127 129 155 154 135 127 119 109 102 95 100 99 101 116 97 82 109 96 97 147 160 158 163 158 148 151 155 160 162 160 154 148 146 138 125 111 97 94 99 105 112 115 118 118 120 123 131 142 146 142 135 126 128 117 98 95 94 94 95 98 100 101 96 89 86 83 83 83 84 87 91 92 90 90 89 89 90 89 89 92 95 98 98 100 103 105
296 340 10 22 12 8 116 169 239 184 10 52 132 144 144 140 131 123 116 117 120 119 113 111 113 93 93 130 97 91 137 154 156 159 157 149 153 156 159 162 162 153 147 147 142 134 121 106 101 103 111 115 116 118 119 120 125 131 141 149 150 142 128 121 109 102 101 98 97 99 97 96 102 98 91 90 89 87 87 90 94 98 97 94 92 87 85 83 81 79 80 82 87 92 96 100 103
221 304 336 51 49 331 319 120 239 197 78 83 129 145 141 139 132 124 115 120 134 134 128 123 114 111 113 108 97 106 126 141 150 150 150 147 150 156 158 161 164 158 151 149 144 141 128 116 108 106 113 117 116 116 116 117 117 121 128 136 142 141 132 121 108 104 104 103 102 103 100 99 103 100 96 97 94 92 92 97 101 103 99 93 85 79 77 74 74 73 74 79 85 93 97 100 104
205 235 297 70 94 304 299 301 226 221 166 126 124 144 141 137 128 125 121 121 138 133 126 114 113 128 120 104 107 121 127 142 149 147 150 146 150 164 162 158 163 157 152 151 145 146 137 124 114 107 110 113 114 112 111 113 107 104 111 116 120 127 129 124 111 107 109 109 108 104 101 101 103 101 101 103 98 96 96 99 105 104 98 89 81 75 73 72 73 74 75 81 87 94 99 102 103
253 229 208 81 68 271 260 249 206 214 161 117 89 128 138 138 124 120 119 121 138 135 136 116 117 127 115 107 124 133 141 150 153 150 154 150 155 169 163 156 157 152 148 148 147 150 145 133 120 108 105 106 109 110 110 111 107 105 110 112 112 116 120 119 111 111 113 111 109 103 99 102 107 107 106 106 101 100 99 101 104 101 96 87 82 77 73 72 71 74 75 78 84 91 97 101 103
281 264 104 113 192 220 219 165 191 198 101 92 92 118 128 131 120 123 124 128 138 132 147 131 136 134 105 112 136 143 154 157 159 153 152 150 156 167 162 156 154 150 146 148 151 154 152 141 127 112 104 103 106 110 113 112 113 113 114 115 114 114 115 112 109 109 110 108 105 99 98 99 103 107 108 108 106 100 96 98 100 97 95 88 84 79 74 72 71 73 76 80 84 88 93 99 106
246 208 101 164 207 200 202 153 184 139 108 195 173 144 128 126 124 141 136 133 138 125 137 135 146 138 100 126 142 152 158 163 164 150 147 150 161 171 165 158 154 156 155 156 157 157 157 147 133 120 110 107 108 110 115 117 118 119 120 120 118 118 116 114 112 108 106 103 99 95 97 102 102 106 110 110 106 99 91 92 97 97 95 91 84 78 75 73 73 75 78 82 84 87 93 98 107
231 292 112 194 267 244 180 149 193 132 164 233 162 151 125 94 117 144 136 119 131 130 130 138 150 134 117 131 150 164 161 166 162 145 147 157 167 173 169 161 158 164 163 162 161 162 161 152 142 129 120 113 110 110 112 116 119 125 125 125 125 125 123 120 117 110 106 101 97 95 96 102 106 108 112 110 106 101 95 94 97 98 95 90 85 79 78 76 75 76 76 77 78 81 85 89 97
227 302 96 167 312 294 216 168 180 140 173 204 160 155 113 78 100 135 133 120 125 137 133 131 147 137 154 164 171 171 166 164 156 143 154 167 170 172 173 166 162 166 165 164 162 166 165 157 150 138 131 122 116 112 108 111 114 122 125 127 130 128 127 122 118 111 108 103 98 97 95 100 105 109 112 109 107 104 101 101 100 99 95 89 86 82 78 76 74 71 69 69 71 73 74 78 78
232 276 64 46 256 258 252 171 136 128 192 194 161 151 114 82 101 114 126 137 126 134 136 122 142 141 169 181 171 168 168 163 154 149 162 170 171 171 173 173 169 165 165 166 165 167 169 164 158 150 144 134 127 121 114 113 112 116 121 127 129 126 126 120 118 113 110 108 103 102 100 102 107 109 113 113 112 110 107 104 102 100 97 91 85 81 77 74 70 66 64 63 63 64 65 68 68
228 216 67 289 240 212 228 176 154 161 179 181 163 150 128 87 104 108 116 134 124 122 123 109 134 134 153 170 160 166 168 162 157 155 164 170 172 172 175 182 177 168 168 169 170 170 170 172 166 162 160 152 145 136 127 122 117 119 121 125 127 125 124 121 120 118 116 113 110 110 108 107 109 112 115 117 116 114 111 106 104 102 99 95 88 81 73 68 66 62 57 56 55 53 54 57 63
195 128 149 235 226 200 223 196 168 150 150 171 166 154 141 130 125 124 116 121 119 114 113 112 125 121 134 147 150 166 167 162 163 161 167 172 174 177 178 185 184 177 174 171 175 176 173 177 177 175 174 169 164 156 145 136 130 127 124 124 125 124 124 124 123 121 122 120 118 118 117 114 111 113 115 117 118 115 114 110 108 106 101 96 90 83 72 64 60 54 49 49 48 44 41 40 51
196 143 157 228 213 217 276 163 151 139 151 164 161 160 155 157 149 138 130 128 126 109 104 116 120 120 136 149 155 169 169 167 171 168 171 177 178 182 182 185 188 184 181 177 179 182 181 183 186 188 187 181 177 175 165 155 148 139 133 131 127 126 125 123 121 119 122 124 128 131 128 121 114 116 118 116 118 116 113 111 109 107 103 95 89 83 73 59 49 40 35 34 37 37 33 26 31
212 177 167 244 220 241 9 135 160 153 151 158 165 170 163 161 157 150 152 144 141 138 136 133 132 139 148 158 164 171 173 173 177 174 175 182 184 186 186 187 189 189 187 183 183 185 187 191 194 197 202 194 183 183 182 174 166 158 151 146 140 134 129 123 119 116 118 117 123 140 138 120 112 116 117 117 120 121 117 114 112 108 104 99 91 80 61 44 32 18 14 12 14 16 12 5 13
206 179 188 241 204 140 13 108 152 152 149 155 158 153 151 159 164 158 149 140 167 179 172 168 160 159 158 164 171 174 177 176 179 179 177 184 189 190 191 191 191 192 189 187 187 189 191 196 200 201 211 213 200 193 194 192 181 175 172 163 158 150 140 134 129 126 121 109 107 126 131 113 108 115 119 125 126 130 129 121 119 117 112 108 95 60 31 14 360 352 354 351 351 352 346 341 348
213 201 196 232 190 153 161 114 135 149 147 146 139 132 145 158 166 161 154 156 204 193 193 196 181 175 169 170 175 178 181 180 182 185 183 188 193 194 196 193 190 190 191 192 191 193 196 198 203 204 211 219 217 211 207 203 193 187 188 180 175 170 157 150 146 144 132 114 107 105 109 108 111 125 129 129 127 146 148 135 137 139 130 124 77 360 343 338 334 331 333 332 334 334 330 330 337
232 222 186 217 193 160 162 128 133 151 147 143 142 139 147 150 163 164 159 172 166 175 191 197 191 183 177 173 176 182 185 186 187 189 190 194 196 196 196 194 191 190 193 196 198 197 198 201 205 209 212 218 220 221 217 210 204 198 195 188 182 181 173 163 155 152 147 128 123 114 105 114 128 142 145 138 144 189 188 147 157 206 268 281 290 311 309 309 313 314 316 318 319 319 318 324 328
206 235 213 135 159 153 152 127 132 151 147 147 151 146 153 151 161 158 136 141 142 148 167 182 187 179 176 176 177 184 189 191 193 193 194 198 201 200 198 195 193 196 195 195 200 200 200 204 208 214 216 218 222 224 222 215 212 210 204 193 184 184 181 175 171 167 167 161 151 152 149 145 149 163 189 175 178 198 214 230 229 241 265 284 299 305 301 301 304 305 307 308 309 311 314 318 319
206 220 195 147 141 154 154 132 128 140 138 144 147 139 158 160 158 156 149 144 141 148 145 161 174 172 174 180 180 183 188 193 195 195 196 198 201 198 199 200 197 201 202 197 199 201 204 206 209 216 219 221 224 226 225 220 218 218 216 206 192 192 196 195 195 192 187 190 200 196 200 214 206 200 212 236 243 238 248 263 258 253 263 280 293 296 294 297 299 302 304 305 306 307 310 310 309
214 190 175 159 147 157 156 139 128 132 134 145 143 117 136 155 154 154 169 166 152 157 152 156 166 169 173 179 185 185 186 190 194 198 199 197 195 192 195 204 206 205 206 206 204 204 206 209 212 216 220 221 222 226 226 224 222 218 220 222 215 212 213 216 216 215 209 207 216 219 222 233 239 237 234 244 256 265 272 277 281 279 281 284 285 286 289 291 293 296 298 300 301 301 302 301 301
206 165 150 152 144 151 157 142 133 134 135 149 148 124 133 150 159 172 184 176 163 161 158 162 169 172 175 180 188 191 190 190 192 197 199 197 194 192 194 202 211 212 211 212 213 210 209 214 216 216 220 221 219 224 227 226 226 221 224 229 228 226 222 226 231 232 229 224 224 227 232 237 244 251 251 252 254 261 267 272 278 280 284 284 284 286 289 291 292 293 294 295 296 296 298 298 299
173 140 111 133 137 133 152 140 139 141 132 151 142 117 95 117 171 198 184 177 174 171 162 168 177 178 181 184 188 195 197 193 192 195 199 201 199 196 196 200 207 213 216 217 218 216 216 220 222 220 220 221 219 221 224 225 227 225 229 232 232 232 226 226 233 239 241 237 232 230 234 239 245 252 256 260 260 260 263 265 268 272 278 280 283 284 286 289 291 292 293 294 295 296 297 298 299
155 142 112 128 108 101 159 148 151 154 136 150 132 93 336 241 218 201 182 179 179 180 173 174 181 182 185 188 192 197 199 197 196 199 202 204 206 205 203 202 206 212 218 221 222 221 222 224 225 225 222 223 223 221 221 225 228 228 230 233 235 235 230 228 230 237 242 244 244 239 236 239 245 250 255 260 264 266 267 267 268 269 272 275 278 279 281 284 287 290 292 293 295 296 298 300 299
152 147 127 131 64 89 193 169 162 150 145 160 137 124 273 254 232 200 180 180 179 186 187 185 187 185 187 192 197 200 201 202 204 204 205 206 208 210 211 209 208 212 217 220 226 229 228 227 226 226 224 224 226 225 223 226 231 231 230 233 238 242 239 234 232 234 238 243 247 248 246 242 243 248 253 258 263 267 269 270 272 273 274 275 277 279 280 282 283 286 290 291 293 294 297 299 298
148 114 129 138 136 217 237 172 155 134 169 178 131 157 252 270 235 187 178 183 183 190 194 195 194 190 191 195 200 204 205 209 214 212 210 209 208 210 213 212 210 211 215 220 227 233 232 229 225 225 225 226 227 228 228 229 235 237 234 235 238 245 247 244 241 239 241 243 245 249 253 251 247 246 250 256 261 264 267 269 273 276 278 278 279 281 281 282 283 285 286 288 289 290 293 295 296
139 134 183 187 154 204 282 189 166 144 182 185 128 179 261 281 213 175 173 181 187 193 196 200 199 194 193 197 202 206 208 212 217 218 217 215 211 211 212 212 211 210 213 221 227 232 233 230 227 226 226 228 228 229 230 230 234 238 240 238 240 245 248 249 249 247 246 247 248 250 252 254 254 251 251 255 259 263 265 267 268 272 274 276 278 279 280 281 281 282 282 285 286 288 290 293 296
181 139 170 192 160 169 251 238 204 163 144 184 155 166 249 269 201 179 174 180 187 192 195 200 201 197 195 199 205 207 208 210 213 216 217 217 215 214 213 211 212 210 212 219 224 229 232 232 230 229 228 229 229 228 229 230 232 237 241 241 243 246 249 251 252 253 252 251 253 254 252 253 253 253 252 254 258 261 263 265 265 266 269 272 274 274 276 277 278 279 279 282 286 288 290 294 298
215 117 148 192 163 156 173 273 230 171 137 192 182 162 238 271 205 187 188 189 193 198 202 206 203 200 200 201 207 210 212 211 212 214 214 216 217 215 215 214 214 213 212 216 222 227 231 233 233 231 230 228 226 224 225 229 231 233 238 242 244 247 251 253 254 255 255 257 258 260 261 259 257 254 250 251 257 261 264 266 266 267 268 271 275 277 279 280 282 284 285 288 291 291 292 296 302
171 154 150 167 146 161 177 204 207 171 148 188 176 205 250 282 248 204 201 197 200 205 206 208 204 202 203 205 208 213 216 217 216 215 214 217 217 217 216 215 213 212 211 213 217 223 227 231 232 231 231 226 223 221 221 225 228 230 234 240 244 247 251 254 256 258 258 260 259 261 265 267 267 265 260 256 255 258 263 267 269 271 273 274 276 278 281 284 288 292 293 295 295 292 293 297 301
169 172 149 150 158 197 198 220 220 159 140 188 187 207 232 248 259 230 209 202 207 211 206 203 203 202 204 206 209 213 217 222 221 217 216 217 217 218 218 216 215 212 212 213 214 217 222 224 226 227 228 225 223 224 223 224 226 229 233 238 243 248 254 256 257 260 260 261 262 264 267 271 273 274 275 272 265 261 261 265 267 267 270 273 276 278 280 284 287 291 294 294 294 293 294 298 298
166 163 149 160 156 192 230 254 277 139 136 212 201 205 236 228 239 237 216 206 213 219 214 208 205 204 205 205 208 212 219 224 222 218 217 218 218 217 218 218 217 216 215 215 215 217 220 222 224 226 225 225 225 227 229 231 232 234 239 244 250 253 255 257 258 261 263 264 266 269 271 274 276 277 279 282 280 274 270 272 272 271 271 270 275 280 282 285 287 290 294 295 296 296 296 298 298
176 168 168 187 164 180 235 210 272 59 146 233 205 204 252 240 237 242 217 201 215 218 212 210 209 207 206 206 208 210 216 221 218 215 214 215 217 215 216 218 217 219 219 218 219 218 220 223 226 227 228 228 230 232 234 237 240 242 247 254 260 259 257 258 261 263 265 264 265 267 270 272 273 275 276 279 280 279 280 282 283 286 286 278 275 280 288 294 296 296 296 294 292 293 294 295 298
197 186 170 203 195 160 352 337 329 30 145 258 226 198 248 255 252 246 209 196 212 212 205 205 205 205 205 205 207 207 208 213 213 212 211 212 214 215 216 218 219 222 222 223 223 222 223 225 227 228 229 231 233 234 236 239 243 246 250 254 258 260 260 261 260 258 258 258 260 262 264 267 268 270 272 276 280 282 280 280 285 295 298 293 286 286 294 296 293 292 294 294 292 292 296 300 301
189 183 175 200 190 158 197 277 319 39 122 169 110 190 271 276 270 263 219 207 212 212 209 209 208 209 211 208 209 210 207 207 209 208 209 210 213 216 219 222 223 223 223 225 226 227 229 231 232 231 230 233 234 235 238 240 242 244 246 248 251 257 258 257 257 256 256 255 255 257 260 266 270 271 273 276 281 285 286 288 294 293 289 290 288 289 294 292 289 289 293 296 295 295 297 302 303
211 183 185 182 177 176 175 167 136 27 14 92 83 21 309 259 237 260 231 209 214 217 213 215 217 216 216 214 213 213 209 207 207 206 206 210 214 218 222 225 226 226 226 227 229 231 234 234 235 235 233 234 235 237 238 238 239 239 237 237 240 246 251 254 257 260 263 264 260 259 260 261 264 270 276 279 281 285 287 289 289 286 289 297 298 297 294 290 290 293 295 292 291 298 303 304 301
240 200 194 175 168 152 123 126 109 57 330 269 105 65 294 274 232 241 229 193 210 213 207 207 208 206 206 207 204 202 201 201 206 208 208 211 215 219 223 227 229 230 230 230 231 232 234 235 235 235 235 235 235 236 238 238 238 237 236 237 240 244 250 256 259 261 264 264 261 260 260 257 258 261 264 268 272 274 273 274 277 281 289 294 295 295 291 291 295 298 297 290 292 304 306 302 301
222 233 191 154 141 127 132 136 116 120 223 263 109 150 259 312 275 245 219 194 211 212 211 208 202 199 199 199 197 197 198 199 204 210 213 214 217 220 223 227 229 231 231 230 230 230 231 232 232 234 235 235 235 234 235 236 237 237 236 239 242 246 248 252 255 256 255 253 251 251 253 252 254 261 263 260 261 263 263 265 269 271 272 273 274 278 282 287 292 294 294 293 300 307 303 300 302
214 233 142 132 130 136 149 141 123 168 181 355 34 131 209 289 275 268 186 179 220 242 240 230 215 211 209 208 209 210 211 211 212 215 220 223 225 225 225 225 226 227 228 229 229 230 229 229 229 230 232 233 233 233 232 233 235 235 235 235 237 239 241 244 247 249 249 247 244 245 251 256 262 272 278 274 270 270 269 268 270 272 272 271 269 272 276 278 282 284 286 290 295 297 297 299 298
232 206 132 136 138 141 146 128 111 105 114 322 299 146 162 267 274 316 100 159 224 238 234 234 219 212 212 214 215 219 221 221 220 221 224 227 230 232 231 230 228 226 225 226 227 228 228 228 227 226 227 228 230 230 230 231 232 233 232 233 233 234 235 239 243 246 245 244 242 245 253 261 270 279 286 288 284 281 279 276 276 278 279 278 277 276 276 277 278 279 279 282 283 282 285 288 289
191 143 97 89 84 98 109 109 105 70 95 226 252 189 159 267 281 320 85 183 223 230 236 230 212 203 204 208 210 216 224 225 225 222 221 224 227 231 233 234 233 230 226 225 225 226 227 226 225 223 223 223 225 226 227 227 228 228 228 229 231 232 235 239 243 243 242 243 245 251 257 264 274 281 284 288 286 283 284 285 285 286 286 286 286 284 282 281 281 281 281 282 282 282 282 283 285
129 99 75 64 43 52 62 56 91 92 251 243 248 225 132 258 278 225 196 219 205 206 234 225 204 195 194 201 208 217 224 226 225 221 218 220 223 226 228 231 231 229 224 220 220 222 223 223 222 220 219 219 221 221 222 222 222 222 223 225 228 232 237 242 242 239 238 241 247 253 253 253 253 257 266 278 302 317 320 314 313 311 307 305 302 301 300 300 298 297 296 294 292 290 289 290 291
107 92 101 90 23 17 28 2 54 132 242 257 262 271 129 198 261 243 237 249 204 186 202 201 191 186 188 196 208 217 223 223 220 219 219 218 218 220 221 222 222 220 217 213 213 216 218 219 218 217 215 216 217 217 217 218 218 219 220 221 225 230 235 236 231 223 219 212 210 210 197 186 182 182 284 349 356 357 358 353 352 351 347 346 343 338 333 329 327 325 325 322 319 314 308 306 305
89 116 124 108 54 29 48 269 253 203 238 270 282 268 184 226 251 254 259 263 235 212 209 197 184 181 186 194 202 209 214 215 214 214 216 214 213 214 213 213 211 208 206 203 205 209 212 214 215 215 214 214 214 214 215 216 217 218 218 219 220 219 215 201 184 175 171 167 165 163 157 150 133 82 44 27 20 16 13 9 5 359 354 350 346 344 339 337 337 336 336 336 334 333 330 327 324
129 145 141 133 125 113 195 236 264 234 247 281 281 268 247 261 268 253 246 253 256 240 218 199 188 186 188 190 193 197 200 203 203 202 203 204 205 206 205 203 200 196 194 193 192 194 199 204 208 209 209 210 211 211 212 211 210 208 203 198 194 184 168 156 152 150 151 151 149 144 134 121 102 88 74 54 33 21 9 0 354 347 345 341 337 336 335 334 335 336 338 338 340 341 341 339 337
170 163 136 144 153 149 186 204 190 206 249 287 279 241 189 198 262 257 245 255 227 194 194 189 187 187 185 182 184 188 191 192 194 194 196 198 200 199 196 192 190 187 184 184 183 181 180 183 186 187 186 188 191 192 191 190 186 180 172 165 160 156 153 150 147 146 147 147 143 136 130 128 120 104 77 44 16 3 352 346 345 341 340 340 339 339 338 339 342 342 343 344 346 346 345 344 345
227 145 116 155 176 144 144 177 173 162 147 272 231 230 209 201 264 276 297 44 92 131 157 163 169 175 177 179 185 188 190 192 194 196 195 195 195 192 188 183 181 178 174 174 172 168 165 164 164 164 163 163 163 163 163 163 163 160 156 153 151 151 150 149 148 149 149 145 141 139 137 136 123 99 40 14 358 352 349 345 346 346 346 346 345 346 346 345 346 346 346 347 348 349 348 348 348
187 121 163 204 160 117 118 176 126 101 137 238 209 244 287 309 278 281 355 14 117 125 145 154 161 169 176 183 187 189 193 194 197 199 197 194 190 185 180 177 174 169 164 162 159 156 153 153 153 153 154 155 153 153 153 154 154 153 153 152 151 151 150 151 153 152 150 146 146 145 143 138 120 92 27 13 2 354 353 351 352 350 350 351 350 350 350 348 347 346 345 345 346 348 348 347 346
120 155 199 188 96 87 112 136 21 70 175 262 217 215 267 283 247 289 311 256 243 229 189 167 166 172 179 185 188 190 194 194 196 197 195 192 186 181 176 172 169 164 160 158 154 152 150 150 150 151 152 152 151 151 152 152 153 154 154 154 154 154 154 156 156 154 154 154 154 153 149 146 138 122 89 41 12 1 357 353 353 351 350 349 347 346 344 343 342 342 342 342 343 344 345 344 343
133 173 176 124 128 204 133 137 161 156 204 266 273 239 235 205 213 247 240 231 230 224 212 193 184 184 183 184 185 188 191 192 193 193 191 188 183 179 175 170 168 164 161 158 155 153 151 151 152 152 152 152 152 154 154 155 156 157 158 157 157 157 157 158 158 158 159 158 160 161 157 156 146 122 81 42 19 6 360 352 349 346 343 341 338 337 337 337 337 338 338 338 339 339 338 339 339
60 76 82 86 135 169 172 162 156 159 193 231 275 308 253 232 212 195 207 219 214 203 203 204 198 192 187 185 184 188 191 191 192 190 188 185 181 178 175 172 170 166 163 160 156 154 153 153 154 155 156 157 157 158 159 159 157 158 160 159 158 159 159 160 162 162 164 164 165 164 160 156 133 96 49 27 11 358 350 344 341 339 336 335 334 333 333 334 334 334 333 333 334 335 334 335 337
124 122 160 191 111 129 161 187 138 132 161 192 199 244 264 252 205 190 209 220 210 197 198 202 199 194 191 190 190 191 193 191 190 189 186 183 180 178 177 175 172 168 164 161 159 158 158 158 160 162 163 164 163 161 161 161 159 160 163 163 163 164 164 166 167 166 168 169 168 165 161 151 122 77 22 4 352 344 340 337 336 335 335 333 332 331 330 330 331 331 332 332 333 334 334 335 335
158 171 183 184 162 127 149 223 234 119 147 175 166 214 270 257 200 203 223 231 220 204 197 195 197 196 194 194 196 196 194 192 191 189 186 184 182 181 180 177 173 170 167 165 164 164 165 166 167 168 169 168 167 164 163 164 164 164 167 169 169 169 169 170 171 170 172 173 171 170 166 155 139 34 352 344 337 337 336 336 336 335 335 334 331 331 330 329 330 331 332 333 333 333 333 333 334